Theta_e
337 339 340 341 341 342 340 339 333 323 323 323 324 329 330 331 332 330 331 333 332 330 330 330 331 332 333 334 334 334 333 334 334 334 336 336 335 334
335 338 338 338 341 341 340 338 337 331 322 323 321 324 327 328 331 328 329 330 330 329 328 327 328 329 330 330 331 331 331 331 332 331 331 331 331 331
334 336 336 337 338 338 338 337 334 328 319 319 321 322 321 321 322 323 324 324 325 327 326 326 325 325 325 326 327 328 328 328 328 328 328 328 328 326
331 333 333 334 333 334 333 331 328 328 323 317 318 318 318 320 320 320 321 322 324 325 324 323 322 321 320 320 319 319 320 321 322 323 324 324 322 322
329 330 330 330 329 328 328 326 326 326 325 319 315 318 317 318 317 319 319 318 322 324 323 322 320 319 318 317 315 314 312 313 314 315 317 318 319 318
328 329 329 329 327 326 326 327 326 324 322 319 316 316 316 317 318 315 314 317 316 319 321 321 321 320 319 317 316 314 311 310 309 310 311 311 312 314
324 327 330 330 326 325 325 325 324 322 320 318 316 316 315 315 314 317 315 315 315 316 317 317 317 317 319 318 316 314 312 311 309 308 308 307 308 309
322 322 324 326 326 324 323 323 326 322 320 318 317 315 316 317 318 316 315 314 315 318 317 316 318 315 315 315 315 313 312 311 310 308 307 306 307 306
321 321 322 322 324 324 322 322 322 323 324 325 321 320 318 320 320 317 317 318 319 318 318 315 317 316 316 315 314 313 311 310 310 308 307 306 305 304
320 318 319 320 321 322 322 321 321 321 323 323 324 322 323 324 323 323 321 318 319 318 321 318 317 317 317 315 315 313 310 309 309 308 307 305 303 302
317 316 315 318 311 313 319 316 316 315 316 316 317 316 316 316 321 323 320 319 315 320 320 320 317 317 313 314 315 313 310 308 308 308 307 306 303 303
316 315 313 313 308 307 315 315 315 312 315 315 313 312 315 318 317 323 321 318 316 317 321 320 318 317 314 314 314 314 314 309 307 306 306 305 303 308
316 314 313 309 303 302 304 310 311 308 309 312 311 310 310 310 312 313 317 318 315 316 316 322 317 316 315 313 314 313 313 313 312 310 303 303 302 305
315 314 314 305 303 301 306 304 303 308 310 311 310 310 310 309 308 310 312 314 315 315 315 316 312 315 314 311 312 312 313 313 313 312 312 307 303 304
318 311 307 301 300 304 304 305 306 312 311 310 311 311 312 313 311 310 311 311 312 313 312 312 311 308 308 309 308 308 311 313 312 312 312 312 312 312
317 311 307 307 305 307 307 308 312 312 312 312 312 314 311 310 310 309 308 310 310 310 312 312 312 311 308 309 309 309 309 310 312 313 312 312 313 313
313 307 304 303 305 305 306 307 307 307 308 308 308 308 308 308 309 306 305 306 306 307 309 311 313 312 312 311 309 310 310 310 312 311 311 312 314 314
309 307 306 302 302 304 305 305 306 305 307 307 307 307 307 307 307 305 304 305 305 306 308 310 311 311 311 313 313 312 310 310 312 311 311 310 310 314
312 307 308 304 303 304 303 304 306 306 308 307 307 307 306 306 304 304 305 305 305 306 307 307 310 310 307 304 311 311 310 309 309 308 309 310 309 312
313 311 308 306 304 304 305 303 307 308 306 307 307 306 306 305 304 304 304 306 306 306 305 305 306 309 308 306 306 311 305 312 308 308 308 307 309 306
309 308 310 308 307 307 306 307 306 308 308 307 307 307 306 306 305 306 305 302 303 306 305 305 307 308 309 308 305 307 311 304 309 311 310 307 307 307
313 312 310 309 308 308 308 306 306 307 309 308 308 309 308 307 307 307 306 305 304 306 307 309 307 306 305 305 305 308 308 310 306 306 306 306 307 302
315 314 313 312 311 309 307 308 308 309 310 311 311 311 310 307 307 308 307 307 307 307 307 307 306 305 307 306 306 306 306 306 305 305 306 305 305 305
Wind_Speed
3 3 3 2 3 4 3 6 6 3 2 3 3 5 5 5 10 8 8 15 16 16 14 13 13 13 15 16 16 16 17 17 16 15 15 17 18 19
2 1 0 1 2 4 4 3 2 4 4 2 3 2 5 6 11 8 10 14 16 15 14 13 13 13 13 15 16 17 17 16 17 17 17 17 16 16
4 3 4 2 2 3 4 3 4 4 5 3 2 3 4 7 6 6 6 7 7 14 13 12 12 12 13 14 15 15 16 15 16 15 15 15 16 16
4 5 5 3 5 4 4 5 4 3 5 9 2 2 4 4 5 7 5 5 6 11 13 11 12 11 13 13 14 13 13 14 16 15 15 15 16 17
4 4 3 4 5 4 5 6 4 5 6 7 4 2 2 2 5 5 5 5 5 12 12 12 12 12 12 12 12 12 11 12 13 14 14 13 14 15
5 5 5 5 5 5 5 7 7 7 8 7 5 3 2 2 3 5 4 3 5 5 8 9 10 12 11 11 12 12 11 11 11 11 11 11 12 13
6 6 6 6 7 5 5 5 6 6 6 6 5 3 3 4 5 3 3 3 2 2 4 3 4 4 5 8 10 11 10 11 11 11 10 10 10 11
4 5 5 7 8 8 8 5 5 8 8 5 3 5 5 4 3 5 4 4 3 3 3 3 2 3 3 3 8 9 9 9 10 10 10 10 10 10
3 3 3 4 6 7 8 7 5 5 4 4 8 6 7 7 7 6 4 3 3 5 3 4 3 3 3 4 8 8 8 9 9 9 9 9 9 8
3 2 2 3 3 6 8 7 5 4 3 1 5 6 4 8 7 3 5 4 3 4 3 3 4 4 5 4 10 10 9 8 8 8 8 8 7 7
2 2 2 3 4 5 7 7 5 4 6 6 6 5 6 8 6 6 5 5 2 3 6 2 4 3 3 3 5 10 9 9 9 9 8 8 7 6
2 2 4 4 6 7 6 7 7 4 6 6 5 7 5 4 6 1 6 6 3 2 5 5 4 4 3 2 4 5 6 9 8 8 9 8 8 4
3 3 4 7 8 8 7 5 5 6 5 6 5 4 3 3 2 2 4 3 4 2 4 6 3 3 1 2 2 4 6 5 6 6 9 9 10 9
6 5 5 9 9 8 7 7 11 7 5 5 4 3 3 3 3 3 3 2 1 2 7 4 3 3 4 3 3 3 4 6 6 5 6 5 8 10
4 7 8 9 8 6 7 9 11 6 5 5 5 4 3 3 4 3 2 2 2 3 4 3 4 5 3 2 3 3 3 4 5 5 5 7 7 6
5 4 5 5 4 3 3 6 6 6 6 6 5 4 2 3 4 3 3 3 3 3 3 4 5 5 3 2 2 2 3 2 3 4 4 4 5 6
5 3 3 3 5 5 4 5 5 5 7 6 6 6 5 5 4 3 2 3 3 3 5 4 3 2 1 5 3 4 4 4 4 3 3 3 4 5
4 4 5 5 6 7 7 6 6 8 6 6 6 7 6 7 6 4 3 4 5 5 4 4 5 3 3 6 10 5 4 4 3 5 4 4 6 5
5 5 7 8 9 7 6 6 7 7 5 6 6 6 6 5 5 6 6 5 5 4 4 4 5 5 6 7 2 14 6 4 3 4 6 6 5 8
7 8 9 7 6 7 7 7 7 5 7 6 7 7 7 6 6 7 7 7 6 4 4 4 5 6 7 8 4 2 17 7 5 7 5 4 7 9
7 6 5 6 5 6 7 7 8 8 7 6 7 7 7 7 8 8 8 9 6 5 7 7 9 6 3 2 2 5 4 18 10 8 4 5 6 3
6 7 5 4 5 4 4 5 5 7 8 8 9 8 8 9 9 9 9 8 9 8 9 5 4 6 6 8 9 7 5 3 8 15 8 8 5 7
5 6 5 6 6 6 5 5 7 10 9 9 9 8 9 9 9 9 10 10 9 9 8 7 6 6 7 8 9 7 6 6 4 6 7 15 17 19
Wind_Direction
337 297 252 226 208 188 169 167 144 137 115 37 86 18 58 64 82 77 86 98 99 92 86 83 77 74 76 81 82 81 79 77 77 73 69 78 82 77
11 4 67 51 190 179 173 155 123 125 122 101 60 62 62 74 85 78 87 90 91 89 84 80 77 76 78 79 81 80 79 79 77 73 72 71 74 75
30 52 56 54 102 122 129 122 115 98 116 83 86 57 64 85 82 79 80 83 90 94 88 90 87 81 79 78 76 77 77 75 74 75 75 74 74 77
31 47 47 66 79 98 115 103 103 102 120 129 119 99 76 80 86 86 78 79 93 91 94 95 92 86 82 80 78 75 72 75 75 74 77 78 83 82
45 50 60 90 89 100 107 111 108 108 123 139 120 108 100 101 88 82 82 71 84 93 90 90 87 85 85 83 80 78 77 74 73 74 72 72 81 85
46 51 50 73 102 116 114 119 122 121 124 122 112 117 99 101 90 128 108 104 98 89 92 91 93 96 98 99 98 95 87 82 79 77 76 75 73 80
47 43 44 74 97 120 137 125 127 123 130 128 120 116 124 154 161 163 122 132 100 127 116 103 104 98 91 95 102 104 101 97 93 93 90 88 88 88
68 54 57 62 72 94 118 120 133 144 145 138 140 154 155 162 148 159 140 147 157 191 143 137 150 120 119 120 127 128 122 119 115 112 110 107 104 99
84 59 69 70 89 100 101 109 106 83 106 148 161 166 162 173 153 154 154 149 174 150 146 164 182 164 167 159 157 149 145 140 134 127 120 116 113 111
146 118 120 116 107 119 112 102 86 73 96 150 171 162 156 159 157 150 151 122 94 142 196 168 171 188 172 177 179 173 170 158 146 145 145 147 148 146
145 152 165 155 126 115 122 117 105 74 60 85 95 125 146 145 151 141 153 159 135 172 192 210 173 164 174 192 189 189 189 184 179 177 175 176 176 180
178 184 197 193 165 152 142 141 128 134 131 117 99 75 91 143 163 192 167 174 141 175 187 200 170 172 181 185 191 193 203 203 196 195 198 199 195 211
198 207 211 201 179 172 164 165 161 150 139 127 123 116 106 117 140 158 186 181 178 205 164 187 173 161 200 147 177 194 206 202 211 206 209 214 212 221
202 206 208 197 190 179 171 161 143 134 145 147 151 157 156 159 159 154 141 157 213 252 159 168 152 182 178 174 185 174 200 214 216 219 217 222 227 232
221 204 191 187 186 189 199 166 158 162 165 178 188 197 188 164 143 141 119 95 98 126 148 182 162 153 185 184 165 183 193 190 207 219 219 227 231 221
217 183 183 168 180 182 154 183 191 185 190 204 211 211 157 184 188 172 175 178 186 179 186 177 161 153 152 183 204 184 206 224 177 209 229 243 235 228
142 131 170 180 196 199 200 195 198 198 209 215 219 218 206 187 188 175 169 171 204 194 195 180 178 209 231 166 204 232 239 240 222 209 204 258 245 224
144 191 194 199 199 202 199 193 202 205 210 204 207 195 191 192 180 174 180 205 199 198 192 178 171 182 206 227 226 222 222 246 222 204 214 238 261 230
199 198 206 202 214 208 203 193 200 208 186 196 195 195 198 199 173 198 202 206 211 211 204 173 184 202 209 237 207 217 218 208 208 216 214 212 242 264
214 209 210 205 204 209 201 205 209 193 204 204 202 201 200 194 187 206 206 206 210 205 202 192 207 203 213 228 242 255 207 232 217 236 229 227 250 288
222 225 209 196 207 209 222 205 208 200 203 199 208 202 199 196 209 211 206 204 199 211 222 217 223 181 163 125 236 248 252 216 233 227 204 225 248 249
212 222 224 223 201 207 217 207 213 216 211 210 219 213 208 201 213 211 207 205 207 214 221 222 157 161 183 206 229 234 248 255 216 236 251 256 254 253
234 231 226 215 217 216 210 218 215 223 219 218 217 217 215 213 212 214 214 212 216 213 221 223 193 193 210 214 231 241 233 250 251 254 243 222 237 250